OBJECT BD (43809 NORAD) Tracking and Keplerian Element Data

This shows tracking and keplerian element data for the satellite.

Feedback or suggestion? Click here.




ElementValue
Catalog43809
NameOBJECT BD
Epoch Orbit538
Epoch Day10.82763045
Epoch Year2019
RAAN84.6198
Inclination97.7634
Eccentricity0.0016396
Argument of Perigee136.5468
Mean Anonmoly223.7048
Mean Motion14.9531339
Decay Rate2.91E-06
L11 43809U 18099BD 19010.82763045 .00000291 00000-0 31629-4 0 9994
L22 43809 97.7634 84.6198 0016396 136.5468 223.7048 14.95313390 5386

Live tracking and technical data element details for OBJECT BD (NORAD 43809). OBJECT BD can be tracked NOW for your location showing map with azimuth and elevation plus other details from your city location.

Track the satellite on the map from your city or location and see movement details for azimuth, elevation, latitude, longitude, range, height, and movement on the map or in text.







IsCatalogInMostPopularTable: catalog: 43809, numindb: 17
Update: records affected: 1



GetName: 43809 OBJECT BD

Hit Count: updated at: Thu, 17 Jan 2019 16:13:18 GMT